When you browse on this site, cookies collect data to enhance your experience and personalize the content and advertising you see.
Visit our Privacy Policy to learn more. By continuing to use the site, you agree to this use of cookies and data.
  • In United Kingdom
  • List of Countries
  • For 7 days
  • Water Temperature
  • Satellite Maps
  • Weather Map
  • Weather Widgets
  • user-avatar
    Login

    Hourly Weather Hajdarabad

    Today, 18 July, Thursday

    Time Temperature Precipitation Wind Pressure Humidity
    00:00 +32°C° 0 mm 7 mps 746 mmHg 70%
    01:00 +32°C° 0 mm 8 mps 746 mmHg 71%
    02:00 +32°C° 0 mm 8 mps 745 mmHg 71%
    03:00 +31°C° 0 mm 8 mps 745 mmHg 72%
    04:00 +31°C° 0 mm 8 mps 745 mmHg 73%
    05:00 +30°C° 0 mm 7 mps 746 mmHg 73%
    06:00 +32°C° 0 mm 8 mps 746 mmHg 71%
    07:00 +32°C° 0 mm 8 mps 746 mmHg 68%
    08:00 +33°C° 0 mm 9 mps 746 mmHg 66%
    09:00 +34°C° 0 mm 8 mps 746 mmHg 61%
    10:00 +37°C° 0 mm 8 mps 747 mmHg 55%
    11:00 +38°C° 0 mm 8 mps 747 mmHg 49%
    12:00 +39°C° 0 mm 8 mps 746 mmHg 46%
    13:00 +42°C° 0 mm 9 mps 745 mmHg 42%
    14:00 +43°C° 0 mm 9 mps 745 mmHg 38%
    15:00 +43°C° 0 mm 9 mps 744 mmHg 39%
    16:00 +42°C° 0 mm 9 mps 744 mmHg 40%
    17:00 +42°C° 0 mm 9 mps 744 mmHg 41%
    18:00 +39°C° 0 mm 9 mps 744 mmHg 48%
    19:00 +37°C° 0 mm 9 mps 744 mmHg 54%
    20:00 +34°C° 0 mm 9 mps 745 mmHg 61%
    21:00 +33°C° 0 mm 9 mps 745 mmHg 64%
    22:00 +32°C° 0 mm 9 mps 745 mmHg 68%
    23:00 +31°C° 0 mm 9 mps 746 mmHg 71%

    Tomorrow, 19 July, Friday

    Time Temperature Precipitation Wind Pressure Humidity
    00:00 +31°C° 0 mm 9 mps 745 mmHg 72%
    01:00 +31°C° 0 mm 8 mps 745 mmHg 72%
    02:00 +31°C° 0 mm 8 mps 745 mmHg 72%
    03:00 +31°C° 0 mm 8 mps 745 mmHg 72%
    04:00 +31°C° 0 mm 8 mps 745 mmHg 73%
    05:00 +31°C° 0 mm 8 mps 745 mmHg 73%
    06:00 +31°C° 0 mm 8 mps 745 mmHg 71%
    07:00 +32°C° 0 mm 8 mps 745 mmHg 68%
    08:00 +33°C° 0 mm 8 mps 746 mmHg 65%
    09:00 +34°C° 0 mm 8 mps 746 mmHg 59%
    10:00 +37°C° 0 mm 8 mps 746 mmHg 54%
    11:00 +38°C° 0 mm 8 mps 746 mmHg 48%
    12:00 +40°C° 0 mm 8 mps 745 mmHg 44%
    13:00 +41°C° 0 mm 8 mps 745 mmHg 39%
    14:00 +44°C° 0 mm 8 mps 745 mmHg 35%
    15:00 +43°C° 0 mm 8 mps 744 mmHg 36%
    16:00 +43°C° 0 mm 8 mps 744 mmHg 38%
    17:00 +41°C° 0 mm 8 mps 744 mmHg 39%
    18:00 +39°C° 0 mm 8 mps 744 mmHg 45%
    19:00 +37°C° 0 mm 8 mps 744 mmHg 52%
    20:00 +34°C° 0 mm 7 mps 745 mmHg 58%
    21:00 +34°C° 0 mm 8 mps 745 mmHg 62%
    22:00 +33°C° 0 mm 8 mps 746 mmHg 66%
    23:00 +32°C° 0 mm 8 mps 746 mmHg 70%

    Day after tomorrow, 20 July, Saturday

    Time Temperature Precipitation Wind Pressure Humidity
    00:00 +32°C° 0 mm 7 mps 746 mmHg 71%
    01:00 +30°C° 0 mm 7 mps 746 mmHg 72%
    02:00 +30°C° 0 mm 6 mps 746 mmHg 73%
    03:00 +30°C° 0 mm 6 mps 746 mmHg 74%
    04:00 +30°C° 0 mm 6 mps 746 mmHg 75%
    05:00 +30°C° 0 mm 6 mps 746 mmHg 76%
    06:00 +30°C° 0 mm 6 mps 746 mmHg 72%
    07:00 +32°C° 0 mm 7 mps 747 mmHg 68%
    08:00 +33°C° 0 mm 7 mps 747 mmHg 65%
    09:00 +35°C° 0 mm 7 mps 747 mmHg 58%
    10:00 +36°C° 0 mm 6 mps 747 mmHg 52%
    11:00 +39°C° 0 mm 6 mps 747 mmHg 46%
    12:00 +40°C° 0 mm 6 mps 747 mmHg 42%
    13:00 +42°C° 0 mm 6 mps 746 mmHg 37%
    14:00 +44°C° 0 mm 6 mps 746 mmHg 33%
    15:00 +44°C° 0 mm 6 mps 745 mmHg 33%
    16:00 +44°C° 0 mm 6 mps 745 mmHg 33%
    17:00 +44°C° 0 mm 6 mps 745 mmHg 33%
    18:00 +41°C° 0 mm 7 mps 745 mmHg 40%
    19:00 +39°C° 0 mm 7 mps 745 mmHg 47%
    20:00 +35°C° 0 mm 8 mps 746 mmHg 54%
    21:00 +34°C° 0 mm 8 mps 746 mmHg 59%
    22:00 +33°C° 0 mm 8 mps 746 mmHg 64%
    23:00 +32°C° 0 mm 8 mps 747 mmHg 69%

    21 July, Sunday

    Time Temperature Precipitation Wind Pressure Humidity
    00:00 +32°C° 0 mm 8 mps 746 mmHg 70%
    01:00 +32°C° 0 mm 7 mps 746 mmHg 71%
    02:00 +30°C° 0 mm 7 mps 745 mmHg 71%
    03:00 +30°C° 0 mm 7 mps 745 mmHg 73%
    04:00 +30°C° 0 mm 6 mps 745 mmHg 74%
    05:00 +30°C° 0 mm 6 mps 745 mmHg 75%
    06:00 +30°C° 0 mm 7 mps 746 mmHg 72%
    07:00 +32°C° 0 mm 7 mps 746 mmHg 70%
    08:00 +33°C° 0 mm 7 mps 746 mmHg 67%
    09:00 +35°C° 0 mm 8 mps 746 mmHg 58%
    10:00 +38°C° 0 mm 8 mps 746 mmHg 49%
    11:00 +40°C° 0 mm 8 mps 746 mmHg 41%
    12:00 +41°C° 0 mm 8 mps 746 mmHg 37%
    13:00 +44°C° 0 mm 8 mps 745 mmHg 33%
    14:00 +45°C° 0 mm 8 mps 744 mmHg 29%
    15:00 +44°C° 0 mm 8 mps 744 mmHg 31%
    16:00 +43°C° 0 mm 9 mps 744 mmHg 34%
    17:00 +42°C° 0 mm 9 mps 744 mmHg 36%
    18:00 +39°C° 0 mm 9 mps 744 mmHg 44%
    19:00 +37°C° 0 mm 9 mps 744 mmHg 52%
    20:00 +34°C° 0 mm 9 mps 745 mmHg 59%
    21:00 +33°C° 0 mm 9 mps 745 mmHg 63%
    22:00 +32°C° 0 mm 9 mps 745 mmHg 66%
    23:00 +32°C° 0 mm 9 mps 745 mmHg 69%

    22 July, Monday

    Time Temperature Precipitation Wind Pressure Humidity
    00:00 +32°C° 0 mm 9 mps 745 mmHg 70%
    01:00 +31°C° 0 mm 9 mps 745 mmHg 72%
    02:00 +31°C° 0 mm 9 mps 744 mmHg 73%
    03:00 +31°C° 0 mm 9 mps 744 mmHg 72%
    04:00 +31°C° 0 mm 8 mps 744 mmHg 71%
    05:00 +31°C° 0 mm 8 mps 744 mmHg 70%
    06:00 +32°C° 0 mm 9 mps 745 mmHg 68%
    07:00 +32°C° 0 mm 9 mps 745 mmHg 67%
    08:00 +33°C° 0 mm 9 mps 745 mmHg 65%
    09:00 +35°C° 0 mm 9 mps 745 mmHg 58%
    10:00 +38°C° 0 mm 9 mps 745 mmHg 51%
    11:00 +39°C° 0 mm 9 mps 745 mmHg 45%
    12:00 +42°C° 0 mm 9 mps 744 mmHg 40%
    13:00 +43°C° 0 mm 9 mps 744 mmHg 36%
    14:00 +44°C° 0 mm 9 mps 743 mmHg 32%
    15:00 +43°C° 0 mm 9 mps 743 mmHg 34%
    16:00 +43°C° 0 mm 9 mps 743 mmHg 35%
    17:00 +42°C° 0 mm 10 mps 742 mmHg 37%
    18:00 +39°C° 0 mm 10 mps 743 mmHg 45%
    19:00 +37°C° 0 mm 10 mps 743 mmHg 52%
    20:00 +34°C° 0 mm 10 mps 743 mmHg 59%
    21:00 +33°C° 0 mm 10 mps 744 mmHg 63%
    22:00 +32°C° 0 mm 10 mps 744 mmHg 67%
    23:00 +32°C° 0 mm 10 mps 744 mmHg 71%

    23 July, Tuesday

    Time Temperature Precipitation Wind Pressure Humidity
    00:00 +31°C° 0 mm 10 mps 744 mmHg 71%
    01:00 +31°C° 0 mm 9 mps 744 mmHg 72%
    02:00 +31°C° 0 mm 9 mps 743 mmHg 72%
    03:00 +31°C° 0 mm 9 mps 743 mmHg 72%
    04:00 +31°C° 0 mm 9 mps 743 mmHg 71%
    05:00 +31°C° 0 mm 9 mps 743 mmHg 71%
    06:00 +32°C° 0 mm 9 mps 743 mmHg 68%
    07:00 +32°C° 0 mm 10 mps 744 mmHg 66%
    08:00 +33°C° 0 mm 10 mps 744 mmHg 63%
    09:00 +36°C° 0 mm 10 mps 744 mmHg 57%
    10:00 +38°C° 0 mm 10 mps 744 mmHg 50%
    11:00 +40°C° 0 mm 10 mps 744 mmHg 44%
    12:00 +40°C° 0 mm 10 mps 743 mmHg 42%
    13:00 +42°C° 0 mm 10 mps 743 mmHg 40%
    14:00 +43°C° 0 mm 10 mps 742 mmHg 38%
    15:00 +42°C° 0 mm 10 mps 742 mmHg 40%
    16:00 +42°C° 0 mm 11 mps 742 mmHg 41%
    17:00 +41°C° 0 mm 11 mps 742 mmHg 43%
    18:00 +38°C° 0 mm 10 mps 742 mmHg 49%
    19:00 +36°C° 0 mm 10 mps 743 mmHg 56%
    20:00 +33°C° 0 mm 10 mps 743 mmHg 62%
    21:00 +33°C° 0 mm 10 mps 744 mmHg 65%
    22:00 +32°C° 0 mm 10 mps 744 mmHg 68%
    23:00 +32°C° 0 mm 10 mps 744 mmHg 71%
    Show more